SCOUT X-4 R/B

基本信息
目录编号:
1815
目录名称:
SCOUT X-4 R/B
国际标识:
1965-101B
轨道中心:
EARTH
物体状态:
在轨
发射日期:
1965-12-06 UTC
国别:
美国 (US)
轨道信息
数据来源: 国际轨道数据
星历时间: 2026-07-14T01:38:54+0800
半长轴: 6969.686km
偏心率: 0.0005727
轨道倾角: 75.842°
近地点辐角: 65.011°
升交点赤经: 301.297°
平近点角: 295.168°
近地点: 587.557km
远地点: 595.541km
周期: 96.512分钟
每日圈数: 14.920488
详细信息
发射场:
AFWTR
轨道高度:
LEO
数据来源:
AOE Integration Group
参考系:
TEME
时间系统:
UTC
历元类型:
SGP4
2D轨道图
3D轨道图
轨道高度分析图
轨道倾角分析图
轨道综合分析图
查看轨道综合分析图